Starlink 30936

operational
NORAD ID: 58534 Int'l Des: 2023-192 Owner: SPXS Country: US Constellation: starlink
LEOCIRCULAR

About Starlink 30936

Description loading...

Live Position

Loading 3D Globe...

Upcoming Passes

Altitude History

Altitude vs Time

uPlot chart will show altitude changes over time

Two-Line Element Set

1 58534U 23192D 25258.10725622 .00001578 00000-0 65429-4 0 9990
2 58534 53.1596 148.3400 0001205 70.7269 289.3862 15.30182766 99246
Epoch: Sep 15, 2025 • Age: 30 hours

Current Status

Altitude 490.2 km
Velocity 7.62 km/s
Sub-Earth Point -42.98°S, 18.44°W
Launch Date Dec 8, 2023
Age 1.7 years
Type internet

Technical Details

Classification Payload
Mass 730.00 kg
Dry Mass 700.00 kg
Total Mass 730.00 kg
Length 0.30 m
Diameter 4.10 m
Span 29.00 m
Shape Box + pan
Manufacturer SPXS
Bus Type Starlink V2M
Phase Status In Orbit
Owner/State SPXS/US

Large Constellations

Loading constellations...